Location: Newark
(49.1000°N, 0.4667°W)
Time: 11:26:02
(UTC+00:00)

BEESAT 3 - Visible Passes

Search period start: 03 July 2020 00:00
Search period end: 13 July 2020 00:00
Orbit: 480 x 525 km, 64.9° (Epoch: 02 July)

Date Brightness Start Highest point End Pass type
(mag) Time Alt. Az. Time Alt. Az. Time Alt. Az.
03 Jul ? 00:52:51 10° NW 00:54:37 13° NNW 00:56:25 10° N visible
03 Jul ? 21:15:54 10° S 21:19:08 24° ESE 21:22:23 10° ENE visible
03 Jul ? 22:52:29 10° WSW 22:56:17 45° NW 23:00:08 10° NNE visible
04 Jul ? 00:32:44 10° NW 00:34:37 13° NNW 00:36:31 10° N visible
04 Jul ? 20:56:03 10° S 20:59:12 23° ESE 21:02:21 10° ENE visible
04 Jul ? 22:32:28 10° WSW 22:36:19 47° NW 22:40:11 10° NNE visible
05 Jul ? 00:12:37 10° NW 00:14:36 13° NNW 00:16:36 10° N visible
05 Jul ? 22:12:28 10° WSW 22:16:20 50° NW 22:20:14 10° NNE visible
05 Jul ? 23:52:30 10° NW 23:54:35 14° NNW 23:56:41 10° N visible
06 Jul ? 03:10:46 10° N 03:12:48 13° NNE 03:14:48 10° NE visible
06 Jul ? 21:52:28 10° SW 21:56:22 54° NW 22:00:16 10° NNE visible
06 Jul ? 23:32:23 10° WNW 23:34:34 14° NNW 23:36:46 10° N visible
07 Jul ? 02:50:51 10° N 02:52:47 13° NNE 02:54:42 10° NE visible
07 Jul ? 21:32:29 10° SW 21:36:23 57° NW 21:40:19 10° NNE visible
07 Jul ? 23:12:17 10° WNW 23:14:34 15° NNW 23:16:51 10° N visible
08 Jul ? 02:30:57 10° N 02:32:46 13° NNE 02:34:34 10° NE visible
08 Jul ? 21:12:29 10° SW 21:16:24 61° NW 21:20:21 10° NE visible
08 Jul ? 22:52:11 10° WNW 22:54:33 15° NNW 22:56:56 10° N visible
09 Jul ? 02:11:02 10° N 02:12:44 12° NNE 02:14:26 10° NE visible
09 Jul ? 20:52:29 10° SW 20:56:25 65° NW 21:00:24 10° NE visible
09 Jul ? 22:32:04 10° WNW 22:34:32 16° NNW 22:37:00 10° N visible
10 Jul ? 01:51:08 10° N 01:52:43 12° NNE 01:54:17 10° NE visible
10 Jul ? 22:11:58 10° WNW 22:14:31 16° NNW 22:17:04 10° NNE visible
11 Jul ? 01:31:14 10° N 01:32:41 12° NNE 01:34:08 10° NE visible
11 Jul ? 03:07:27 10° NNW 03:11:08 37° NE 03:14:45 10° ESE visible
11 Jul ? 21:51:53 10° WNW 21:54:30 17° NNW 21:57:08 10° NNE visible
12 Jul ? 01:11:21 10° N 01:12:40 11° NNE 01:13:58 10° NE visible
12 Jul ? 02:47:29 10° NNW 02:51:09 35° NE 02:54:43 10° ESE visible
12 Jul ? 21:31:47 10° WNW 21:34:29 17° NNW 21:37:12 10° NNE visible
